Weather History for Jerome, ID

Change the Weather History Date:

Tuesday, January 21, 2014

  Actual Average Record
Temperature  
Mean Temperature 34 °F 27 °F  
Max Temperature 47 °F 34 °F 55 °F (1981)
Min Temperature 20 °F 20 °F -13 °F (1962)
Degree Days  
Heating Degree Days 31 38  
Month to date heating degree days 678 816  
Since 1 July heating degree days 3462 3546  
Cooling Degree Days 0 0  
Month to date cooling degree days 0 0  
Year to date cooling degree days 0 0  
Moisture  
Dew Point 22 °F    
Average Humidity 69    
Maximum Humidity 100    
Minimum Humidity 38    
Precipitation  
Precipitation 0.00 in 0.02 in 0.81 in (2012)
Month to date precipitation 0.26 0.83  
Year to date precipitation 0.26 0.83  
Sea Level Pressure  
Sea Level Pressure 30.45 in    
Wind  
Wind Speed 7 mph (NNW)    
Max Wind Speed 17 mph    
Max Gust Speed 23 mph    
Visibility 7 miles    
Events Fog    
T = Trace of Precipitation, MM = Missing Value Source: NWS Daily Summary

Daily Weather History Graph

Daily Weather History Graph

Search for Another Location

Airport:

Trip Planner

Search our weather history database for the weather conditions in past years. The results will help you decide how hot, cold, wet, or windy it might be!

Date:

Astronomy

Jan. 21, 2014 Rise Set
Actual Time 8:01 AM MST 5:36 PM MST
Civil Twilight 7:31 AM MST 6:07 PM MST
Nautical Twilight 6:56 AM MST 6:42 PM MST
Astronomical Twilight 6:22 AM MST 7:15 PM MST
Moon 11:22 PM MST (1/21) 10:25 AM MST (1/21)
Length of Visible Light 10h 36m
Length of Day
9h 35m
Waning Gibbous, 74% of the Moon is Illuminated
Jan 21
Waning Gibbous
Jan 23
Last Quarter
Jan 30
New
Feb 6
First Quarter
Feb 14
Full

Hourly Weather History & Observations

Time (MST) Temp. Windchill Dew Point Humidity Pressure Visibility Wind Dir Wind Speed Gust Speed Precip Events Conditions
12:53 AM 21.9 °F 14.5 °F 19.9 °F 92% 30.57 in 10.0 mi North 5.8 mph - N/A   Clear
1:53 AM 23.0 °F 18.4 °F 19.9 °F 88% 30.54 in 10.0 mi ENE 3.5 mph - N/A   Clear
2:53 AM 19.9 °F 14.9 °F 17.1 °F 89% 30.53 in 10.0 mi North 3.5 mph - N/A   Clear
3:53 AM 21.0 °F 12.4 °F 19.0 °F 92% 30.53 in 10.0 mi East 6.9 mph - N/A   Clear
4:53 AM 21.0 °F 13.4 °F 19.0 °F 92% 30.53 in 10.0 mi East 5.8 mph - N/A   Clear
5:53 AM 21.0 °F 11.4 °F 19.0 °F 92% 30.54 in 10.0 mi NE 8.1 mph - N/A   Clear
6:53 AM 21.0 °F 8.6 °F 18.0 °F 88% 30.53 in 10.0 mi NE 12.7 mph - N/A   Clear
7:53 AM 23.0 °F 9.2 °F 19.0 °F 85% 30.53 in 10.0 mi ENE 17.3 mph - N/A   Clear
8:53 AM 24.1 °F 13.1 °F 19.9 °F 84% 30.54 in 10.0 mi ENE 11.5 mph - N/A   Clear
9:53 AM 28.9 °F 19.2 °F 21.9 °F 75% 30.53 in 10.0 mi ENE 11.5 mph - N/A   Clear
10:53 AM 33.1 °F 23.9 °F 24.1 °F 70% 30.51 in 10.0 mi ENE 12.7 mph - N/A   Unknown
11:53 AM 37.9 °F 32.1 °F 25.0 °F 60% 30.50 in 10.0 mi NE 8.1 mph - N/A   Clear
12:53 PM 42.1 °F 39.2 °F 24.1 °F 49% 30.45 in 10.0 mi NE 4.6 mph - N/A   Clear
1:53 PM 44.1 °F 42.5 °F 23.0 °F 43% 30.42 in 10.0 mi Variable 3.5 mph - N/A   Clear
2:53 PM 46.9 °F - 23.0 °F 39% 30.39 in 10.0 mi North 5.8 mph - N/A   Clear
3:53 PM 43.0 °F 37.7 °F 27.0 °F 53% 30.39 in 10.0 mi West 9.2 mph - N/A   Clear
4:53 PM 35.1 °F 30.1 °F 26.1 °F 70% 30.41 in 10.0 mi West 5.8 mph - N/A   Clear
5:53 PM 28.0 °F 20.8 °F 24.1 °F 85% 30.43 in 10.0 mi WNW 6.9 mph - N/A   Clear
6:53 PM 24.1 °F 15.2 °F 23.0 °F 96% 30.45 in 10.0 mi WNW 8.1 mph - N/A   Clear
7:34 PM 23.0 °F 15.8 °F 21.9 °F 96% 30.33 in 9.0 mi West 5.8 mph - N/A   Scattered Clouds
7:43 PM 24.1 °F 14.4 °F 23.0 °F 96% 30.33 in 6.0 mi West 9.2 mph - N/A   Mostly Cloudy
7:53 PM 23.0 °F 13.1 °F 23.0 °F 100% 30.45 in 4.0 mi West 9.2 mph - N/A   Overcast
7:56 PM 23.0 °F 13.1 °F 23.0 °F 100% 30.33 in 1.8 mi West 9.2 mph - N/A   Overcast
8:07 PM 23.0 °F 13.1 °F 23.0 °F 100% 30.33 in 0.5 mi WNW 9.2 mph - N/A Fog Light Freezing Fog
8:19 PM 21.9 °F 12.5 °F 21.9 °F 100% 30.33 in 0.2 mi WNW 8.1 mph - N/A Fog Light Freezing Fog
8:53 PM 21.9 °F 13.4 °F 21.9 °F 100% 30.45 in 0.2 mi West 6.9 mph - N/A Fog Light Freezing Fog
9:53 PM 21.9 °F 12.5 °F 21.0 °F 96% 30.43 in 0.2 mi West 8.1 mph - N/A Fog Light Freezing Fog
10:53 PM 21.9 °F 17.2 °F 21.9 °F 100% 30.42 in 0.2 mi NW 3.5 mph - N/A Fog Light Freezing Fog
11:53 PM 21.9 °F - 21.9 °F 100% 30.40 in 0.2 mi Calm Calm - N/A Fog Light Freezing Fog